STARLINK-2186 (48561 NORAD) Tracking and Keplerian Element Data

This shows tracking and keplerian element data for the satellite.

Feedback or suggestion? Click here.




ElementValue
Catalog48561
NameSTARLINK-2186
Epoch Orbit1258
Epoch Day215.25002315
Epoch Year2021
RAAN102.5046
Inclination53.0543
Eccentricity0.0001723
Argument of Perigee42.2473
Mean Anonmoly183.3168
Mean Motion15.42198972
Decay Rate-0.00041618
L11 48561U 21041J 21215.25002315 -.00041618 00000-0 -95073-3 0 9990
L22 48561 53.0543 102.5046 0001723 42.2473 183.3168 15.42198972 12583

Live tracking and technical data element details for STARLINK-2186 (NORAD 48561). STARLINK-2186 can be tracked NOW for your location showing map with azimuth and elevation plus other details from your city location.

Track the satellite on the map from your city or location and see movement details for azimuth, elevation, latitude, longitude, range, height, and movement on the map or in text.







IsCatalogInMostPopularTable: catalog: 48561, numindb: 21
Update: records affected: 1



GetName: 48561 STARLINK-2186

Hit Count: updated at: Tue, 03 Aug 2021 19:57:14 GMT